Regional Weather Roundup
Issued by NWS Midland/Odessa, TX

Skip options and go directly to product.
Home | Oldest Version | Next Version | Current Version | All | Text Only | Save Text | Print | Product List | Glossary On

Skip product version selection by date and time.   
580
ASUS44 KMAF 031101
RWRMAF
MIDLAND AREA WEATHER ROUNDUP
NATIONAL WEATHER SERVICE MIDLAND TX
600 AM CDT TUE MAY 03 2016

...IN SOUTHWEST TEXAS AND SOUTHEAST NEW MEXICO...

CITY           SKY/WX    TMP DP  RH WIND       PRES   REMARKS
ALPINE         CLEAR     41  34  76 SW6       30.19S WCI  37
ANDREWS        FAIR      50  41  70 SW7       30.11S
ARTESIA        CLEAR     45  30  57 CALM      30.11R
BIG SPRING     CLEAR     44  39  84 CALM      30.13F
CARLSBAD       CLEAR     40  30  67 S3        30.08F
DRYDEN         NOT AVBL
FORT STOCKTON  CLEAR     49  41  74 S9        30.10F
GUAD PASS      NOT AVBL
HOBBS          CLEAR     43  37  81 S3        30.12S
MARFA          CLEAR     37  31  78 N8          N/A  WCI  31
MIDLAND AIRPK  CLEAR     53  44  70 S7        30.12S
MIDLAND INTL   CLEAR     52  43  71 S7        30.11S
ODESSA         CLEAR     52  42  69 SW6       30.11S
PECOS          CLEAR     46  33  62 E6        30.09F
PRESIDIO       FAIR      59  40  49 NE6       30.08S
SEMINOLE       CLEAR     44  36  74 W3        30.12S
SNYDER           N/A     45  41  86 SW5       30.12S
WINK           CLEAR     44  37  76 E3        30.09S
$$
...OTHER STATIONS IN TEXAS...

CITY           SKY/WX    TMP DP  RH WIND       PRES   REMARKS
ABILENE        CLEAR     47  45  93 S6        30.11R
AMARILLO       CLEAR     39  34  82 SW9       30.09F WCI  33
AUSTIN         CLOUDY    57  50  77 N7        30.09R
BROWNSVILLE    CLOUDY    66  57  72 N12       29.99F
CORPUS CHRISTI CLOUDY    65  52  62 N15       30.04S
DALLAS FTW     CLEAR     50  44  80 NW6       30.08R
DEL RIO        CLOUDY    55  53  93 CALM      30.10S
EL PASO        CLEAR     54  31  41 CALM      30.07S
HOUSTON INT    MOCLDY    56  53  90 N6        30.04R
LUBBOCK        CLEAR     47  36  65 SW3       30.10S
SAN ANGELO     CLEAR     42  41  96 SW3       30.12R
SAN ANTONIO    CLOUDY    58  50  75 N6        30.10R
WACO           PTCLDY    50  46  86 NW5       30.09R
WICHITA FALLS  NOT AVBL
$$
...OTHER LOCATIONS IN NEW MEXICO...

CITY           SKY/WX    TMP DP  RH WIND       PRES   REMARKS
ALAMAGORDO     CLEAR     48  27  43 N9        30.12S
ALBUQUERQUE    PTCLDY    49  38  65 NW5       30.16R
CANNON AFB     NOT AVBL
CLOVIS         CLEAR     41  30  65 S6        30.11F WCI  37
HOLLOMAN AFB   CLEAR     47  28  46 N5        30.10R
ROSWELL        CLEAR     40  29  64 SW3       30.08F
RUIDOSO          N/A     41  28  60 NW3       30.19F
SANTA FE       CLEAR     42  35  76 SW3       30.17S
TRUTH OR CONSE CLEAR     50  37  61 N3        30.13R
TUCUMCARI      CLEAR     42  34  73 W3        30.07F
$$

USA.gov is the U.S. government's official web portal to all federal, state and local government web resources and services.